Weather History for KLHX - February, 2013

Change the Weather History Date:

Thursday, February 28, 2013

  Actual Average Record
Temperature  
Mean Temperature 32 °F 39 °F  
Max Temperature 50 °F 54 °F 80 °F (1972)
Min Temperature 13 °F 25 °F -13 °F (1960)
Degree Days  
Heating Degree Days 33 26  
Month to date heating degree days 831 843  
Since 1 July heating degree days 3776 4101  
Cooling Degree Days 0 0  
Month to date cooling degree days 0 0  
Year to date cooling degree days 0 0  
Moisture  
Dew Point 6 °F    
Average Humidity 43    
Maximum Humidity 73    
Minimum Humidity 12    
Precipitation  
Precipitation 0.00 in 0.02 in 0.07 in (2007)
Month to date precipitation 0.09 0.36  
Year to date precipitation 0.11 0.65  
Sea Level Pressure  
Sea Level Pressure 30.27 in    
Wind  
Wind Speed 10 mph (NW)    
Max Wind Speed 20 mph    
Max Gust Speed 31 mph    
Visibility 10 miles    
Events      
T = Trace of Precipitation, MM = Missing Value Source: NWS Daily Summary

Daily Weather History Graph

Daily Weather History Graph

Search for Another Location

Airport or City:

Trip Planner

Search our weather history database for the weather conditions in past years. The results will help you decide how hot, cold, wet, or windy it might be!

Date:

Astronomy

Feb. 28, 2013 Rise Set
Actual Time 6:26 AM MST 5:46 PM MST
Civil Twilight 6:00 AM MST 6:13 PM MST
Nautical Twilight 5:29 AM MST 6:43 PM MST
Astronomical Twilight 4:59 AM MST 7:14 PM MST
Moon 9:12 PM MST (2/28) 7:41 AM MST (2/28)
Length of Visible Light 12h 12m
Length of Day
11h 20m
Waning Gibbous, 90% of the Moon is Illuminated
Feb 28
Waning Gibbous
Mar 4
Last Quarter
Mar 11
New
Mar 19
First Quarter
Mar 27
Full

Hourly Weather History & Observations

Time (MST) Temp. Windchill Dew Point Humidity Pressure Visibility Wind Dir Wind Speed Gust Speed Precip Events Conditions
12:53 AM 19.0 °F 6.1 °F 8.1 °F 62% 30.29 in 10.0 mi West 12.7 mph - N/A   Clear
1:53 AM 17.1 °F 5.8 °F 7.0 °F 65% 30.30 in 10.0 mi WNW 9.2 mph - N/A   Clear
2:53 AM 16.0 °F 2.9 °F 7.0 °F 68% 30.31 in 10.0 mi West 11.5 mph - N/A   Clear
3:53 AM 16.0 °F 1.7 °F 8.1 °F 71% 30.32 in 10.0 mi West 13.8 mph - N/A   Clear
4:53 AM 15.1 °F - 7.0 °F 70% 30.34 in 10.0 mi Calm Calm - N/A   Clear
5:53 AM 15.1 °F 9.4 °F 7.0 °F 70% 30.35 in 10.0 mi SSW 3.5 mph - N/A   Clear
7:53 AM 23.0 °F 9.2 °F 10.9 °F 60% 30.35 in 10.0 mi West 17.3 mph - N/A   Clear
8:53 AM 32.0 °F 20.8 °F 12.9 °F 45% 30.33 in 10.0 mi West 17.3 mph - N/A   Clear
9:53 AM 39.0 °F 31.0 °F 10.0 °F 30% 30.31 in 10.0 mi West 13.8 mph - N/A   Clear
10:53 AM 42.1 °F 39.2 °F 6.1 °F 23% 30.29 in 10.0 mi West 4.6 mph - N/A   Clear
11:53 AM 45.0 °F 42.6 °F 5.0 °F 19% 30.27 in 10.0 mi Variable 4.6 mph - N/A   Clear
12:53 PM 46.9 °F - 3.9 °F 17% 30.23 in 10.0 mi West 6.9 mph - N/A   Clear
2:53 PM 48.9 °F - -0.9 °F 13% 30.19 in 10.0 mi NW 10.4 mph - N/A   Clear
3:53 PM 50.0 °F - -0.0 °F 13% 30.17 in 10.0 mi NNE 5.8 mph - N/A   Clear
4:53 PM 46.9 °F - 1.0 °F 15% 30.19 in 10.0 mi NNE 11.5 mph - N/A   Clear
5:53 PM 41.0 °F 32.8 °F 3.0 °F 21% 30.22 in 10.0 mi NNE 16.1 mph - N/A   Partly Cloudy
6:53 PM 39.9 °F 32.5 °F 6.1 °F 25% 30.25 in 10.0 mi NNE 12.7 mph - N/A   Overcast
7:53 PM 37.9 °F 30.0 °F 6.1 °F 27% 30.25 in 10.0 mi NNE 12.7 mph - N/A   Overcast
8:53 PM 36.0 °F 30.3 °F 7.0 °F 30% 30.26 in 10.0 mi North 6.9 mph - N/A   Overcast
9:53 PM 35.1 °F 30.1 °F 8.1 °F 33% 30.26 in 10.0 mi North 5.8 mph - N/A   Overcast
10:53 PM 32.0 °F 26.4 °F 8.1 °F 37% 30.25 in 10.0 mi NW 5.8 mph - N/A   Overcast
11:53 PM 34.0 °F 26.6 °F 8.1 °F 34% 30.22 in 10.0 mi West 9.2 mph - N/A   Overcast